Regional Weather Roundup
Issued by NWS

Home | Current Version | Previous Version | Text Only | Print | Product List | Glossary Off
Versions: 1 2 3 4 5 6 7 8 9 10 11 12 13 14 15 16 17 18 19 20 21 22 23 24 25 26 27 28 29 30 31 32 33 34 35 36 37 38 39 40 41 42 43 44 45 46 47 48 49 50

000
ASUS43 KLMK 201802
RWRKY
KENTUCKY REGIONAL WEATHER ROUNDUP
NATIONAL WEATHER SERVICE LOUISVILLE KY
200 PM EDT SUN AUG 20 2017

NOTE "FAIR" INDICATES FEW OR NO CLOUDS BELOW 12,000 FEET
WITH NO SIGNIFICANT WEATHER AND/OR OBSTRUCTIONS TO VISIBILITY.

KYZ001>023-026-027-061>063-070>075-201900-
WESTERN AND SOUTH CENTRAL KENTUCKY

CITY           SKY/WX    TMP DP  RH WIND       PRES   REMARKS
PADUCAH        SUNNY     91  71  51 VRB5      30.05F HX  97
HENDERSON      MOSUNNY   89  73  59 S9        30.06F HX  97
OWENSBORO      SUNNY     90  74  59 S9        30.07F HX  99
HOPKINSVILLE   SUNNY     90  68  48 S5        30.08F HX  93
BOWLING GREEN  CLOUDY    89  67  47 CALM      30.09F HX  92
GLASGOW        MOSUNNY   91  67  44 S3        30.11F HX  93
$$

KYZ024-025-028>034-038-045-046-053-201900-
NORTH CENTRAL KENTUCKY

CITY           SKY/WX    TMP DP  RH WIND       PRES   REMARKS
LOUISVILLE/SDF PTSUNNY   87  69  54 SW9       30.08F HX  91
LOUISVILLE/LOU PTSUNNY   88  68  51 SW7       30.09F HX  91
FORT KNOX      CLOUDY    84  72  68 W3        30.09F
$$

KYZ035>037-039>044-047>052-055>060-089>105-201900-
NORTHEAST KENTUCKY

CITY           SKY/WX    TMP DP  RH WIND       PRES   REMARKS
LEXINGTON      MOSUNNY   87  65  47 SW6       30.12F
COVINGTON      MOSUNNY   86  68  54 SW6       30.10S
FRANKFORT      MOSUNNY   88  66  48 S9        30.10S HX  90
$$

KYZ054-064>069-076>088-106>120-201900-
SOUTHEAST KENTUCKY

CITY           SKY/WX    TMP DP  RH WIND       PRES   REMARKS
JACKSON        MOSUNNY   85  68  56 CALM      30.16S
LONDON         SUNNY     85  65  51 S6        30.15F
SOMERSET       NOT AVBL
MIDDLESBORO    SUNNY     87  67  50 SE5       30.15F HX  90
MONTICELLO     CLEAR     88  69  53 W13       30.15F HX  92
$$





USA.gov is the U.S. government's official web portal to all federal, state and local government web resources and services.